Location: Unspecified
(58.9933°N, 5.6375°E)
Time: 16:40:36
(UTC+01:00)

Cosmos 2058 - Pass Details

Date: 25 January 2018
Orbit: 563 x 585 km, 82.5° (Epoch: 19 February)

Event Time Altitude Azimuth Distance (km) Brightness Sun altitude
Exits shadow 04:17:18 14° 94° (E) 1,654 5.8 -35.4°
Drops below altitude 10° 04:18:16 10° 105° (ESE) 1,907 6.1 -35.3°
Sets 04:20:57 0° 122° (ESE) 2,799 6.8 -35.0°
